Terug naar catalogus

ONEWEB-0118

ActiefCommunicatiePO
NORAD 47264·PAYLOAD·🇬🇧 United Kingdom

Gelanceerd Dec 18, 2020 vanaf Vostochny Cosmodrome

Loading…

Volgende Passages (komende 24 uur)

TLE

VersSource: CelesTrak SupGP

Epoch: Sep 14, 2026, 13:16 UTC

1 47264C 20100G   26257.55292083  .00002578  00000+0  71747-2 0  2578
2 47264  87.8981 332.9144 0001798 111.1336 358.8018 13.12434289    14

Volg ONEWEB-0118 in realtime met AllMySat

Download on the App Store